Regional Weather Roundup
Issued by NWS

Home | Current Version | Previous Version | Text Only | Print | Product List | Glossary Off
Versions: 1 2 3 4 5 6 7 8 9 10 11 12 13 14 15 16 17 18 19 20 21 22 23 24 25 26 27 28 29 30

000
ASUS45 KBOU 211707
RWRCO

WEATHER ROUNDUP FOR COLORADO
NATIONAL WEATHER SERVICE DENVER/BOULDER CO
1100 AM MDT TUE OCT 21 2014

NOTE: "FAIR" INDICATES FEW OR NO CLOUDS BELOW 12000 FEET WITH NO
SIGNIFICANT WEATHER AND/OR OBSTRUCTIONS TO VISIBILITY.

COZ001>005-013-030-031-211800-
...NORTHWEST COLORADO...

CITY           SKY/WX    TMP DP  RH WIND       PRES   REMARKS
CRAIG          PTSUNNY   57  39  51 CALM      30.09F
HAYDEN         NOT AVBL
MEEKER         CLOUDY    60  41  49 S14G24    30.10F
MOUNT WERNER   NOT AVBL
STEAMBOAT SPGS CLOUDY    51  38  63 CALM      30.12F
WALDEN         PTSUNNY   54  34  47 S10G16    30.17S
$$

COZ006>008-011-211800-
...WEST CENTRAL VALLEYS...

CITY           SKY/WX    TMP DP  RH WIND       PRES   REMARKS
GRAND JUNCTION PTSUNNY   61  42  49 SE12      30.05F
MONTROSE       CLOUDY    63  40  42 NE5       30.13F
EAGLE          MOSUNNY   48  39  71 CALM      30.17F
RIFLE          LGT RAIN  53  40  61 S3        30.12R
DELTA          PTSUNNY   64  42  44 CALM      30.11F
NUCLA          CLOUDY    54  41  62 N3        30.17S
$$

COZ017>023-064>068-211800-
...SOUTHWEST COLORADO...

CITY           SKY/WX    TMP DP  RH WIND       PRES   REMARKS
DURANGO        CLOUDY    52  45  77 E3        30.21S
CORTEZ         CLOUDY    61  44  53 S9        30.17R
PAGOSA SPRINGS CLOUDY    50  42  75 CALM      30.26S
TELLURIDE      PTSUNNY   53  34  48 S8        30.28S
WOLF CREEK PAS FOG       32  32 100 SW8       30.41F VSB 1/4 WCI  25
$$

COZ009-010-012-014-032>034-037-058>063-211800-
...CENTRAL COLORADO...

CITY           SKY/WX    TMP DP  RH WIND       PRES   REMARKS
ASPEN          CLOUDY    55  35  47 N6        30.17F
BUENA VISTA    MOSUNNY   53  35  50 CALM      30.22F
COPPER MTN     MOSUNNY   45  28  53 S12       30.38F
BERTHOUD PASS  CLOUDY    34  32  93 W6        30.42S WCI  29
COTTONWOOD PAS MOSUNNY   52  34  50 E3        30.30F
GUNNISON       PTSUNNY   48  34  57 NE7       30.24F
KREMMLING      CLOUDY    43  32  65 CALM        N/A
LEADVILLE      CLOUDY    41  31  67 CALM      30.29F
MONARCH PASS   MOSUNNY   37  32  81 SW9       30.50S
SALIDA         MOSUNNY   57  38  48 N5        30.27F
SUNLIGHT       CLOUDY    46  37  71 CALM      30.34S
WILKERSON PASS NOT AVBL
$$

COZ069>075-211800-
...SAN LUIS VALLEY/SANGRE DE CRISTO MOUNTAINS...

CITY           SKY/WX    TMP DP  RH WIND       PRES   REMARKS
ALAMOSA        SUNNY     53  36  52 VRB5      30.24F
LA VETA PASS   MOSUNNY   46  34  61 S10G20    30.32F
SAGUACHE       MOSUNNY   52  37  58 SE8       30.26F
$$

COZ035-036-038>040-211800-
...NORTHERN COLORADO FRONT RANGE...

CITY           SKY/WX    TMP DP  RH WIND       PRES   REMARKS
DENVER INTL AP MOSUNNY   71  37  28 W9        30.02F
DMNS CITY PARK   N/A     71  35  27 S5        30.01F
AURORA         MOSUNNY   69  38  32 SW13      30.04F
FRONT RANGE AP MOSUNNY   73  37  27 SE8       30.04F
ERIE MUNI ARPT SUNNY     63  42  45 CALM      30.02S
BOULDER MUN AP SUNNY     68  39  34 CALM      30.01F
CENTENNIAL     MOSUNNY   68  36  30 SW12      30.05F
BROOMFIELD     PTSUNNY   68  36  30 NE5       30.04F
FORT COLLINS   SUNNY     64  41  42 SE6       30.02F
LONGMONT       SUNNY     71  41  33 CALM      30.02F
$$

COZ041-046-047-076>085-087-088-211800-
...PIKES PEAK/PALMER DIVIDE AND SOUTHERN FOOTHILLS...

CITY           SKY/WX    TMP DP  RH WIND       PRES   REMARKS
COLO. SPRINGS  MOSUNNY   62  41  46 SE5       30.11F
A. F. ACADEMY  SUNNY     63  40  42 S7        30.11F
ELLICOTT       SUNNY     61  40  45 SW9       30.10F
FALCON         SUNNY     65  35  33 CALM      30.14F
FORT CARSON    SUNNY     60  43  52 SE3       30.09F
LIMON          SUNNY     64  46  52 S10       30.07F
MONUMENT HILL  SUNNY     64  32  29 S6        30.12F
TRINIDAD       PTSUNNY   65  41  41 CALM      30.11F
$$

COZ042>045-048>051-090-091-211800-
...NORTHEAST COLORADO...

CITY           SKY/WX    TMP DP  RH WIND       PRES   REMARKS
GREELEY ARPT   SUNNY     61  41  48 CALM      30.02F
AKRON          SUNNY     70  41  34 SW10      30.01S
BURLINGTON     SUNNY     70  49  47 S15G22    30.05F
WRAY           SUNNY     74  50  42 S15       30.01F
STERLING       SUNNY     66  48  52 SW7       29.97F
HOLYOKE        SUNNY     72  52  49 S13G18    30.00F
FORT MORGAN    SUNNY     62  40  44 W5        30.00F
$$

COZ086-089-092>099-211800-
...SOUTHEAST COLORADO...

CITY           SKY/WX    TMP DP  RH WIND       PRES   REMARKS
PUEBLO         SUNNY     64  41  42 CALM      30.06F
LA JUNTA       SUNNY     68  46  45 CALM      30.05F
LAMAR          SUNNY     70  50  49 CALM      30.03F
SPRINGFIELD      N/A     70  47  43 S20G29    30.09F
$$



USA.gov is the U.S. government's official web portal to all federal, state and local government web resources and services.